(55) Pandora
ephemeris date magn radius delta ra dec elong phase
Today5 Sep 202613.93.086 AU3.653 AU13h50m-15°05'49.0°14.3°
Opposition5 Jul 202711.52.712 AU1.708 AU19h05m-34°04'168.5°4.3°
(55) Pandora - 2026-09-05
astro.vanbuitenen.nl


 
-1 year
-1 month
-1 day
Now
+1 day
+1 month
+1 year

The interactive orbit chart above shows the body's path through the solar system and its position at the given date. Green and blue lines are shown perpendicular to the ecliptic plane: Green if the path is above the ecliptic plane, blue if it is below. (Left-click and drag to rotate the view; Right-click and drag to move the view; Use scroll wheel to zoom in our out.)

The orbital elements of Pandora are:

            e (Eccentricity)                : 0.1449760
            a (Semimajor axis)              : 2.7580540
            i (Inclination)                 : 7.17612
            Ω (Longitude of ascending node) : 10.28341
            ω (Argument of perihelion)      : 4.89075
            M (Mean anomaly)                : 200.62853
            Epoch                           : 2026 Jun 09

            L (Longitude of perihelion)     : 15.13603
            B (Latitude of perihelion)      : 0.61022
            P (Orbital period in years)     : 4.58            
        

The light curve chart below shows the estimated development of the minor planet's magnitude.


The all-sky chart below shows the path of the minor planet over the same period as the light curve. The current position is marked yellow.





The following chart shows the path of the minor planet in the next few days. The field of view is optimized for (~10x50) binoculars and finderscopes.




Ephemerides:
Date       Time       RA (2000)    DEC (2000)    delta   radius  elong  phase   PA    magn
2026-09-05 00:00 UT   13 50 24.4   -15 05 13     3.653    3.086   49.0   14.3   114   13.9 
2026-09-05 06:03 UT   13 50 42.7   -15 06 58     3.655    3.086   48.8   14.2   114   13.9 
2026-09-06 00:00 UT   13 51 37.3   -15 12 09     3.662    3.086   48.3   14.1   114   13.9 
2026-09-07 00:00 UT   13 52 50.6   -15 19 05     3.672    3.085   47.7   14.0   114   13.9 
2026-09-08 00:00 UT   13 54 04.3   -15 26 02     3.681    3.084   47.0   13.8   114   13.9 
2026-09-09 00:00 UT   13 55 18.5   -15 33 01     3.691    3.083   46.4   13.7   114   13.9 
2026-09-10 00:00 UT   13 56 33.1   -15 40 00     3.700    3.082   45.7   13.5   114   13.9 
2026-09-11 00:00 UT   13 57 48.2   -15 47 00     3.709    3.082   45.1   13.4   114   13.9 
2026-09-12 00:00 UT   13 59 03.7   -15 54 01     3.718    3.081   44.5   13.2   114   13.9 
2026-09-13 00:00 UT   14 00 19.6   -16 01 03     3.727    3.080   43.8   13.1   114   13.9 
2026-09-14 00:00 UT   14 01 35.9   -16 08 06     3.735    3.079   43.2   12.9   114   13.9 
2026-09-15 00:00 UT   14 02 52.7   -16 15 09     3.744    3.078   42.5   12.8   114   13.9 
2026-09-16 00:00 UT   14 04 09.8   -16 22 13     3.752    3.078   41.9   12.6   114   13.9 
2026-09-17 00:00 UT   14 05 27.4   -16 29 18     3.761    3.077   41.2   12.4   114   13.9 
2026-09-18 00:00 UT   14 06 45.4   -16 36 23     3.769    3.076   40.6   12.3   114   13.9 
2026-09-19 00:00 UT   14 08 03.7   -16 43 28     3.777    3.075   40.0   12.1   114   13.9 
2026-09-20 00:00 UT   14 09 22.5   -16 50 34     3.785    3.074   39.3   11.9   114   13.9 
2026-09-21 00:00 UT   14 10 41.6   -16 57 39     3.793    3.074   38.7   11.8   114   13.9 
2026-09-22 00:00 UT   14 12 01.1   -17 04 46     3.800    3.073   38.1   11.6   114   13.9 
2026-09-23 00:00 UT   14 13 21.1   -17 11 52     3.808    3.072   37.4   11.5   114   13.9 
2026-09-24 00:00 UT   14 14 41.3   -17 18 59     3.815    3.071   36.8   11.3   114   13.9 
2026-09-25 00:00 UT   14 16 02.0   -17 26 05     3.822    3.070   36.2   11.1   114   13.8 
2026-09-26 00:00 UT   14 17 23.0   -17 33 12     3.830    3.069   35.5   10.9   114   13.8 
2026-09-27 00:00 UT   14 18 44.4   -17 40 19     3.837    3.069   34.9   10.8   114   13.8 
2026-09-28 00:00 UT   14 20 06.2   -17 47 25     3.844    3.068   34.3   10.6   114   13.8 
2026-09-29 00:00 UT   14 21 28.3   -17 54 32     3.850    3.067   33.6   10.4   114   13.8 
2026-09-30 00:00 UT   14 22 50.8   -18 01 38     3.857    3.066   33.0   10.3   114   13.8 


    Terminology:
            
    delta:  distance between minor planet and earth in AU
    radius: distance between minor planet and sun in AU
    magn:   magnitude (brightness) estimate    
    ra:     right ascension in hours (24h = 360deg)
    dec:    declination in degrees
    elong:  elongation in degrees (angle sun-earth-minor planet)    
    phase:  phase angle in degrees (angle sun-minor planet-earth)        
    AU:     Astronomical Unit (mean distance between earth and sun: 149597870.7 km
    

Orbital elements provided by the MPC (Minor Planet Center).
Calculations by a modified version of AAPlus, a C# implementation of the AA+ project by PJ Naughter from the algorithms presented in the book "Astronomical Algorithms" by Jean Meeus.
NGC2000 dso catalog and star labels from VizieR as provided by the Strasbourg astronomical Data Center.
Tycho2 catalog from the ESO archive.